Location: Big Sandy Campground
(37.4666°N, 119.5821°W)
Time: 17:55:14
(UTC+00:00)

Cosmos 1300 - Pass Details

Date: 03 August 2024
Orbit: 455 x 456 km, 82.5° (Epoch: 11 September)

Event Time Altitude Azimuth Distance (km) Brightness Sun altitude
Exits shadow 12:32:09 - 224° (SW) 1,829 4.9 -6.7°
Reaches altitude 10° 12:32:45 10° 229° (SW) 1,621 4.6 -6.6°
Maximum altitude 12:35:37 23° 283° (WNW) 1,044 3.8 -6.1°
Drops below altitude 10° 12:38:31 10° 338° (NNW) 1,635 5.3 -5.6°
Sets 12:40:56 0° 353° (N) 2,517 6.5 -5.1°
